Regional Weather Roundup
Issued by NWS Albany, NY

Home | Current Version | Previous Version | Text Only | Print | Product List | Glossary On
Versions: 1 2 3 4 5 6 7 8 9 10 11 12 13 14 15 16 17 18 19 20 21 22 23 24 25 26 27 28 29 30 31 32 33 34 35 36 37 38 39 40 41 42 43 44 45 46 47 48 49 50
000
ASUS41 KALY 191010
RWRALY

NEW YORK STATE HOURLY WEATHER ROUNDUP
NATIONAL WEATHER SERVICE ALBANY NY
600 AM EDT SUN APR 19 2015

NOTE: "FAIR" INDICATES FEW OR NO CLOUDS BELOW 12,000 FEET WITH NO
SIGNIFICANT WEATHER AND/OR NO OBSTRUCTIONS TO VISIBILITY.

NYZ032-033-038>043-046>054-057>066-NYZ062>081-191100-
EAST


CITY           SKY/WX    TMP DP  RH WIND       PRES   REMARKS
ALBANY         PTCLDY    40  30  67 N6        30.25R
GLENS FALLS    CLEAR     32  29  88 CALM      30.26R
POUGHKEEPSIE   CLEAR     44  30  57 N7        30.20R
NEWBURGH       CLEAR     45  34  65 NE9       30.21R
MONTGOMERY     CLEAR     45  31  58 NE9       30.20R
WHITE PLAINS   CLEAR     48  25  40 N6        30.18R
ISLIP          PTCLDY    42  35  76 CALM      30.17R
NEW YORK CITY  PTCLDY    51  30  44 NE5       30.18R
CENTRAL PARK   CLEAR     54  24  31 NE8       30.20R
$$

NYZ005>009-017-018-044>046-055-056-191100-
CENTRAL


CITY           SKY/WX    TMP DP  RH WIND       PRES   REMARKS
FULTON         CLEAR     36  27  69 NE3       30.24R
SYRACUSE       CLEAR     39  29  67 NE8       30.23R WCI  33
ROME           CLEAR     34  26  72 CALM      30.25S
ELMIRA         CLEAR     31  27  85 CALM      30.20R
BINGHAMTON     CLEAR     37  26  64 NE3       30.17R
MONTICELLO     CLEAR     36  21  55 CALM      30.19R
$$

NYZ026>034-041>043-191100-
NORTH


CITY           SKY/WX    TMP DP  RH WIND       PRES   REMARKS
WATERTOWN      CLEAR     32  26  78 NE9       30.26S WCI  24
FORT DRUM      NOT AVBL
MASSENA        CLEAR     28  22  78 CALM      30.32R
SARANAC LAKE   PTCLDY    26  24  92 N5        30.22R WCI  20
PLATTSBURGH    CLOUDY    37  29  72 N10       30.29R WCI  30
$$

NYZ001>004-010>016-019>021-191100-
WEST


CITY           SKY/WX    TMP DP  RH WIND       PRES   REMARKS
NIAGARA FALLS  CLEAR     40  29  64 E17G26    30.19S WCI  31
BUFFALO        PTCLDY    41  29  62 E15       30.19S
DUNKIRK        PTCLDY    42  28  57 E9        30.15S
JAMESTOWN      PTCLDY    43  21  42 E9        30.12S
WELLSVILLE     PTCLDY    38  23  55 E6        30.17S WCI  33
ROCHESTER      CLEAR     38  29  70 NE8       30.24S WCI  32
PENN YAN       CLEAR     39  29  67 N3        30.21S
$$

             KEY
       WCI = WIND CHILL INDEX
       VSB = VISIBILITY
       HX  = HEAT INDEX
$$



USA.gov is the U.S. government's official web portal to all federal, state and local government web resources and services.